Tracking 28052 objects as of 21-Sep-2023
HD Live streaming from Space Station
objects crossing your sky now

NOAA 16 DEB

Track NOAA 16 DEB now!
10-day predictions


NORAD ID: 42346
Int'l Code: 2000-055QN
Perigee: 694.8 km
Apogee: 767.4 km
Inclination: 99.0 °
Period: 99.3 minutes
Semi major axis: 7102 km
RCS: Unknown
Launch date: September 21, 2000
Source: United States (US)
Launch site: AIR FORCE WESTERN TEST RANGE (AFWTR)

Note: This is SATELLITE DEBRIS
Your satellite tracking list
Your tracking list is empty




NASA's NSSDC Master Catalog

Two Line Element Set (TLE):
1 42346U 00055QN  23264.08402293  .00020675  00000-0  51910-2 0  9992
2 42346  99.0446 134.4718 0051054  60.9360 299.6933 14.50516550399105
Source of the keplerian elements: AFSPC